Weather in Luzhki

Russia / Kaliningrad Oblast     54°27′24″N   21°42′31″E
temp.,
°C
wind,
m/s
gust,
m/s
humid.,
%
clouds,
%
prec.,
mm/h
press.,
hPa
HPBL,
m
15 may, sat
sat1523:00+7nnw22945 0.0 100516
02:00+6nne009313 0.0 100510
05:00+6sw119313 0.0 100610
08:00+12sw237739 0.0 1006332
11:00+15sw237598 0.0 1006954
14:00+15sw4578100 0.3 1007795
17:00+13wsw4689100 0.2 1008527
20:00+11w2491100 0.2 1008259
16 may, sun
sun1623:00+8ssw1196100 0.0 100910
02:00+7sse2294100 0.0 100917
05:00+7sse3495100 0.0 100879
08:00+13sse477923 0.0 1008312
11:00+17sse5768100 0.1 10071017
14:00+16s478499 1.8 1006589
17:00+16sse4887100 3.1 1005560
20:00+13sse3794100 7.3 1004178
17 may, mon
mon1723:00+12ssw2398100 2.4 100373
02:00+11wsw5897100 3.4 1003445
05:00+10wsw3798100 0.3 1004372
08:00+12sw348833 0.3 1005501
11:00+16ssw34658 0.0 10051300
14:00+18ssw346162 0.3 10051508
17:00+17s237291 1.4 1004492
20:00+13w1184100 2.5 100411
18 may, tue
tue1823:00+12wsw0191100 0.6 100421
02:00+11ssw2396100 0.9 100370
05:00+10sw239794 1.2 1003104
08:00+11sw3594100 1.6 1003292
11:00+12wsw4793100 0.4 1004499
14:00+12wsw599397 1.4 1004693
17:00+13wnw468571 0.9 1005656
20:00+11w2293100 1.6 100640
19 may, wed
wed1923:00+8w2297100 0.1 100740
02:00+7wsw24978 0.1 100876
05:00+6wsw24975 0.0 100876
08:00+11wsw358621 0.0 1009423
11:00+15w446841 0.3 10101243
14:00+16w346491 1.2 10101390
17:00+14wnw348096 1.9 1010716
20:00+10nw4894100 4.4 1011474